Content
SEND FEEDBACK

Daily
Averages
Monthly
Summary
French Polynesia

PAPEETE, FRENCH POLYNESIA


Home > Oceania > French Polynesia
Elevation: 2 meters     Latitude: 17 33S     Longitude: 149 36W

WEATHER
 
SELECT A DAY
Number of Records: 217,277;   Date Range: 6/30/96 - 12/16/14
 
SHARE

PRINT THIS DATA

[ ← Previous Day ]
WEATHER ALMANAC - 22 OCTOBER, 2013
[ Next Day → ]
[ °F ]   °C
Weather ElementAverageHighLow
Temperature26.6 °C29 °C (9:30 am)23 °C (5:30 am)
Dewpoint21.5 °C23 °C (5:30 pm)20 °C (4:30 am)
Humidity73.1 %83 % (3:00 am)57 % (11:00 am)
Barometer1011.9 hPa1014.6 hPa (8:00 am)1010.2 hPa (3:00 pm)
Wind Speed7.2 km/h16.7 km/h (1:30 pm)
Weather ElementAverage
Visibility12.6 km
Wind DirectionS (185.6 °)

Weather ElementTotal
Precipitation---
Cooling Degree Days7.7 (Base 18.3)
Growing Degree Days16 (Base 10)
Averaged from 52 records on 22 October, 2013
WEATHER CONDITIONS BREAKOUT
WIND DIRECTION BREAKOUT
WEATHER BY HOUR - 22 OCTOBER, 2013
[ °F ]   °C
Local TimeTemperatureDewpointHumidityBarometerVisibilityWind DirectionWind SpeedGust SpeedPrecipitationEventsConditions
12:30 AM26 °C21 °C74 %1012.2 hPa10 kmSSE (160°)5.6 km/hMostly Cloudy
1:00 AM25 °C21 °C78 %1012.2 hPa10 kmSSE (160°)3.7 km/hMostly Cloudy
1:30 AM25 °C21 °C78 %1012.2 hPa10 kmCalmMostly Cloudy
2:00 AM25 °C21.1 °C73 %1011.9 hPa19.3 kmENE (70°)5.6 km/hOvercast
2:00 AM25 °C21 °C78 %1011.2 hPa10 kmENE (70°)5.6 km/hMostly Cloudy
2:30 AM25 °C21 °C78 %1011.2 hPa10 kmEast (80°)5.6 km/hMostly Cloudy
3:00 AM24 °C21 °C83 %1011.2 hPa10 kmEast (100°)5.6 km/hPartly Cloudy
3:30 AM24 °C21 °C83 %1011.2 hPa10 kmESE (120°)5.6 km/h
4:00 AM24 °C21 °C83 %1012.2 hPa10 kmSSE (160°)5.6 km/hPartly Cloudy
4:30 AM24 °C20 °C78 %1012.2 hPa10 kmSSE (160°)7.4 km/hPartly Cloudy
5:00 AM23.3 °C20.6 °C78 %1012.2 hPa54.7 kmESE (110°)5.6 km/hClear
5:00 AM24 °C20 °C78 %1012.2 hPa10 kmVariable5.6 km/hPartly Cloudy
5:30 AM23 °C20 °C83 %1012.2 hPa10 kmEast (90°)7.4 km/hPartly Cloudy
6:00 AM24 °C21 °C83 %1012.2 hPa10 kmVariable1.9 km/hMostly Cloudy
6:30 AM25 °C21 °C78 %1013.2 hPa10 kmVariable3.7 km/hScattered Clouds
7:00 AM26 °C21 °C74 %1013.2 hPa10 kmCalmScattered Clouds
7:30 AM27 °C21 °C70 %1014.2 hPa10 kmCalmMostly Cloudy
8:00 AM27.2 °C21.7 °C64 %1014.6 hPa25.7 kmWest (270°)1.9 km/hPartly Cloudy
8:00 AM27 °C22 °C74 %1014.2 hPa10 kmVariable1.9 km/hScattered Clouds
8:30 AM28 °C21 °C66 %1014.2 hPa10 kmNNW (340°)5.6 km/hScattered Clouds
9:00 AM28 °C21 °C66 %1014.2 hPa10 kmNNE (20°)11.1 km/hScattered Clouds
9:30 AM29 °C21 °C62 %1013.2 hPa10 kmNorth (350°)9.3 km/hScattered Clouds
10:00 AM28 °C22 °C70 %1013.2 hPa10 kmWNW (300°)11.1 km/hScattered Clouds
10:30 AM28 °C21 °C66 %1013.2 hPa10 kmWest (270°)13 km/hPartly Cloudy
11:00 AM28.9 °C21.7 °C57 %1012.9 hPa30.6 kmWSW (250°)14.8 km/hScattered Clouds
11:00 AM29 °C22 °C66 %1012.2 hPa10 kmWSW (250°)14.8 km/hPartly Cloudy
11:30 AM29 °C22 °C66 %1012.2 hPa10 kmWest (270°)11.1 km/hPartly Cloudy
12:00 PM29 °C21 °C62 %1012.2 hPa10 kmNNW (330°)9.3 km/hScattered Clouds
12:30 PM29 °C22 °C66 %1012.2 hPa10 kmNNW (340°)9.3 km/hScattered Clouds
1:00 PM29 °C21 °C62 %1012.2 hPa10 kmNNW (340°)9.3 km/hMostly Cloudy
1:30 PM29 °C21 °C62 %1011.2 hPa10 kmNorth (360°)16.7 km/hMostly Cloudy
2:00 PM28.3 °C22.2 °C62 %1011.9 hPa25.7 kmNorth14.8 km/hMostly Cloudy
2:00 PM28 °C22 °C70 %1011.2 hPa10 kmNorth (360°)14.8 km/hScattered Clouds
2:30 PM29 °C21 °C62 %1011.2 hPa10 kmNorth (350°)7.4 km/hScattered Clouds
3:00 PM29 °C22 °C66 %1010.2 hPa10 kmNW (320°)7.4 km/hMostly Cloudy
3:30 PM28 °C22 °C70 %1010.2 hPa10 kmWest (270°)7.4 km/hMostly Cloudy
4:00 PM28 °C22 °C70 %1010.2 hPa10 kmWest (280°)9.3 km/hMostly Cloudy
5:00 PM27.2 °C21.7 °C66 %1010.8 hPa25.7 kmNorth (350°)9.3 km/hPartly Cloudy
5:00 PM27 °C22 °C74 %1010.2 hPa10 kmNorth (350°)9.3 km/hScattered Clouds
5:30 PM27 °C23 °C79 %1011.2 hPa10 kmWNW (290°)9.3 km/hScattered Clouds
6:00 PM27 °C22 °C74 %1011.2 hPa10 kmWest (270°)11.1 km/hMostly Cloudy
6:30 PM27 °C23 °C79 %1011.2 hPa10 kmWest (280°)9.3 km/hMostly Cloudy
7:00 PM26 °C22 °C78 %1011.2 hPa10 kmWNW (300°)7.4 km/hMostly Cloudy
7:30 PM26 °C23 °C83 %1012.2 hPa10 kmWNW (300°)9.3 km/hMostly Cloudy
8:41 PM26 °C22 °C78 %1012.2 hPa10 kmVariable1.9 km/hMostly Cloudy
9:00 PM26 °C22 °C78 %1012.2 hPa10 kmCalmMostly Cloudy
9:30 PM26 °C23 °C83 %1011.2 hPa10 kmNNW (340°)11.1 km/hMostly Cloudy
10:00 PM26 °C22 °C78 %1011.2 hPa10 kmVariable3.7 km/hMostly Cloudy
10:30 PM26 °C22 °C78 %1011.2 hPa10 kmSW (230°)5.6 km/hMostly Cloudy
11:00 PM25.6 °C22.2 °C77 %1011.9 hPa19.3 kmSSE (160°)3.7 km/hMostly Cloudy
11:12 PM26 °C22 °C78 %1011.2 hPa10 kmVariable3.7 km/hMostly Cloudy
11:30 PM26 °C22 °C78 %1011.2 hPa10 kmSW (230°)7.4 km/hMostly Cloudy
Hourly data recorded from NTAA, located 0 kilometers away from Papeete, French Polynesia







STORIES FROM OUR PARTNERS